Location: Medlow Airstrip Trail, Medlow Bath NSW 2780, Australia
(33.6682°S, 150.3233°E)
Time: 00:20:31
(UTC+11:00)

Explorer 11/Cluster Stage 4 - Pass Details

Date: 25 September 2019
Orbit: 467 x 1259 km, 28.8° (Epoch: 14 October)

Event Time Altitude Azimuth Distance (km) Brightness Sun altitude
Rises 14:26:12 0° 277° (W) 3,744 10.8 40.9°
Reaches altitude 10° 14:29:55 10° 297° (WNW) 2,933 10.7 40.3°
Maximum altitude 14:34:13 17° 333° (NNW) 2,603 10.3 39.5°
Drops below altitude 10° 14:38:49 10° 8° (N) 3,163 10.0 38.7°
Sets 14:43:05 0° 27° (NNE) 4,178 10.3 37.9°
